GW3729 Weather Reports


Display with metric or nautical units.
time (UTC)temp
F
wind
direction
speed
MPH
gust
MPH
rain 1hr
in
rain 24hr
in
rain mn
in
humidity
%
barometer
mb
20260507171455 63 321 2.0 7.0 0.00 0.00 0.00 43 1010.6
20260507170953 63 27 3.0 6.0 0.00 0.00 0.00 43 1010.7
20260507170450 62 29 1.0 6.0 0.00 0.00 0.00 48 1010.6
20260507165946 63 307 3.0 7.0 0.00 0.00 0.00 45 1010.9
20260507165442 63 132 3.0 8.0 0.00 0.00 0.00 47 1010.5
20260507164938 61 339 3.0 6.0 0.00 0.00 0.00 42 1010.9
20260507164435 62 187 2.0 7.0 0.00 0.00 0.00 46 1011.0
20260507163932 62 84 3.0 6.0 0.00 0.00 0.00 42 1011.0
20260507163430 62 130 4.0 9.0 0.00 0.00 0.00 43 1010.8
20260507162927 61 11 2.0 9.0 0.00 0.00 0.00 41 1011.0
20260507162421 61 245 8.0 9.0 0.00 0.00 0.00 44 1011.1
20260507161920 60 295 4.0 12.0 0.00 0.00 0.00 42 1011.2
20260507161415 60 322 2.0 5.0 0.00 0.00 0.00 49 1011.2
20260507160912 61 353 0.0 7.0 0.00 0.00 0.00 40 1011.4
20260507160408 61 152 2.0 8.0 0.00 0.00 0.00 45 1011.6
20260507155904 61 32 5.0 6.0 0.00 0.00 0.00 45 1011.6
20260507155400 60 333 3.0 8.0 0.00 0.00 0.00 45 1011.5
20260507154857 59 82 0.0 10.0 0.00 0.00 0.00 47 1011.8
20260507154354 60 36 2.0 7.0 0.00 0.00 0.00 45 1011.8
20260507153851 60 124 4.0 9.0 0.00 0.00 0.00 41 1011.6
20260507153348 60 106 0.0 8.0 0.00 0.00 0.00 45 1011.3
20260507152844 59 264 4.0 9.0 0.00 0.00 0.00 45 1011.6
20260507152341 60 25 2.0 5.0 0.00 0.00 0.00 48 1011.8
20260507151837 59 348 3.0 8.0 0.00 0.00 0.00 48 1012.2
20260507151333 58 286 2.0 9.0 0.00 0.00 0.00 51 1011.9
20260507150830 58 47 2.0 7.0 0.00 0.00 0.00 48 1012.1
20260507150326 58 312 3.0 6.0 0.00 0.00 0.00 50 1012.3
20260507145822 58 334 5.0 9.0 0.00 0.00 0.00 47 1012.3
20260507145319 59 318 3.0 6.0 0.00 0.00 0.00 49 1012.6
20260507144816 59 101 2.0 6.0 0.00 0.00 0.00 46 1012.3
20260507144314 60 25 3.0 8.0 0.00 0.00 0.00 47 1012.6
20260507143810 59 187 1.0 5.0 0.00 0.00 0.00 48 1012.6
20260507143308 59 89 2.0 4.0 0.00 0.00 0.00 51 1012.4
20260507142803 57 82 2.0 5.0 0.00 0.00 0.00 48 1012.8
20260507142300 57 56 3.0 7.0 0.00 0.00 0.00 51 1012.7
20260507141756 57 34 4.0 8.0 0.00 0.00 0.00 48 1013.0
20260507141248 58 336 2.0 7.0 0.00 0.00 0.00 50 1012.8
20260507140744 57 331 1.0 9.0 0.00 0.00 0.00 51 1012.8
20260507140242 58 354 3.0 9.0 0.00 0.00 0.00 51 1013.0
20260507135738 58 315 4.0 11.0 0.00 0.00 0.00 47 1013.0
20260507135236 57 32 0.0 9.0 0.00 0.00 0.00 51 1013.1
20260507134732 55 36 4.0 11.0 0.00 0.00 0.00 52 1013.0
20260507134228 56 264 4.0 9.0 0.00 0.00 0.00 51 1013.2
20260507133724 55 311 0.0 9.0 0.00 0.00 0.00 53 1012.9
20260507133221 55 286 2.0 6.0 0.00 0.00 0.00 54 1013.0
20260507132719 55 339 3.0 9.0 0.00 0.00 0.00 53 1012.9
20260507132215 55 295 3.0 10.0 0.00 0.00 0.00 52 1013.1
20260507131712 55 315 2.0 8.0 0.00 0.00 0.00 54 1013.4
20260507131210 55 327 4.0 9.0 0.00 0.00 0.00 54 1013.2
20260507130706 55 297 4.0 9.0 0.00 0.00 0.00 53 1013.2
20260507130204 54 355 3.0 9.0 0.00 0.00 0.00 55 1013.1
20260507125702 53 318 5.0 9.0 0.00 0.00 0.00 54 1013.3
20260507125200 53 277 2.0 7.0 0.00 0.00 0.00 56 1012.9
20260507124656 53 18 2.0 7.0 0.00 0.00 0.00 57 1013.3
20260507124153 53 299 3.0 10.0 0.00 0.00 0.00 55 1013.4
20260507123652 53 320 2.0 7.0 0.00 0.00 0.00 55 1013.4
20260507123149 53 272 2.0 6.0 0.00 0.00 0.00 59 1013.4
20260507122644 53 290 2.0 4.0 0.00 0.00 0.00 59 1013.3
20260507122139 53 303 1.0 6.0 0.00 0.00 0.00 59 1013.3
20260507121636 53 11 1.0 5.0 0.00 0.00 0.00 60 1013.2
20260507121132 53 311 0.0 4.0 0.00 0.00 0.00 59 1013.2
20260507120628 53 340 2.0 5.0 0.00 0.00 0.00 59 1013.1
20260507120125 53 74 1.0 4.0 0.00 0.00 0.00 60 1013.2
20260507115621 53 294 2.0 6.0 0.00 0.00 0.00 61 1013.0
20260507115117 53 81 0.0 4.0 0.00 0.00 0.00 61 1013.0
20260507114613 53 67 0.0 3.0 0.00 0.00 0.00 63 1013.0
20260507114110 53 117 0.0 3.0 0.00 0.00 0.00 64 1013.0
20260507113608 53 295 2.0 4.0 0.00 0.00 0.00 63 1013.0
20260507113105 52 68 1.0 4.0 0.00 0.00 0.00 64 1013.0
20260507112603 52 69 0.0 3.0 0.00 0.00 0.00 65 1013.0
20260507112059 52 74 1.0 4.0 0.00 0.00 0.00 66 1012.7
20260507111556 52 297 2.0 3.0 0.00 0.00 0.00 66 1012.9
20260507111053 52 43 1.0 5.0 0.00 0.00 0.00 66 1013.1
20260507110549 52 328 2.0 3.0 0.00 0.00 0.00 66 1012.8
20260507110046 52 294 2.0 3.0 0.00 0.00 0.00 66 1012.9
20260507105542 52 321 2.0 3.0 0.00 0.00 0.00 66 1013.1
20260507105038 52 13 1.0 5.0 0.00 0.00 0.00 65 1012.6
20260507104536 52 302 3.0 4.0 0.00 0.00 0.00 65 1012.6
20260507104032 52 306 1.0 6.0 0.00 0.00 0.00 65 1012.6
20260507103528 52 300 2.0 6.0 0.00 0.00 0.00 65 1012.3
20260507103025 52 323 3.0 7.0 0.00 0.00 0.00 66 1012.0
20260507102522 52 294 4.0 7.0 0.00 0.00 0.00 65 1012.2
20260507102018 52 325 4.0 7.0 0.00 0.00 0.00 64 1012.1
20260507101514 52 342 4.0 6.0 0.00 0.00 0.00 64 1012.4
20260507101010 52 14 3.0 6.0 0.00 0.00 0.00 65 1012.2
20260507100508 52 326 0.0 3.0 0.00 0.00 0.00 67 1012.2
20260507100006 52 300 1.0 5.0 0.00 0.00 0.00 66 1012.4
20260507095503 52 228 0.0 6.0 0.00 0.00 0.00 67 1012.0
20260507094959 52 257 2.0 4.0 0.00 0.00 0.00 67 1012.1
20260507094456 52 279 2.0 7.0 0.00 0.00 0.00 67 1012.0
20260507093953 52 293 4.0 5.0 0.00 0.00 0.00 67 1011.8
20260507093450 52 314 3.0 5.0 0.00 0.00 0.00 66 1011.7
20260507092949 53 304 1.0 5.0 0.00 0.00 0.00 66 1011.6
20260507092445 53 298 4.0 5.0 0.00 0.00 0.00 65 1012.0
20260507091941 53 313 0.0 4.0 0.00 0.00 0.00 65 1012.0
20260507091438 53 320 6.0 8.0 0.00 0.00 0.00 65 1012.0
20260507090934 53 326 2.0 4.0 0.00 0.00 0.00 67 1012.2
20260507090430 53 272 1.0 3.0 0.00 0.00 0.00 68 1012.2
20260507085927 53 312 4.0 6.0 0.00 0.00 0.00 69 1012.3
20260507085424 53 170 1.0 5.0 0.00 0.00 0.00 70 1012.1
20260507084921 53 356 2.0 4.0 0.00 0.00 0.00 72 1012.1
20260507084418 53 340 1.0 3.0 0.00 0.00 0.00 72 1012.0
20260507083915 53 281 2.0 4.0 0.00 0.00 0.00 72 1012.2
20260507083411 53 269 0.0 4.0 0.00 0.00 0.00 73 1011.9
20260507082908 53 268 2.0 5.0 0.00 0.00 0.00 73 1011.7
20260507082403 53 341 3.0 7.0 0.00 0.00 0.00 72 1011.9
20260507081901 54 31 1.0 6.0 0.00 0.00 0.00 72 1011.9
20260507081357 54 164 1.0 5.0 0.00 0.00 0.00 73 1012.1
20260507080854 54 310 3.0 8.0 0.00 0.00 0.00 71 1011.7
20260507080350 54 307 3.0 5.0 0.00 0.00 0.00 72 1011.5
20260507075845 54 298 3.0 8.0 0.00 0.00 0.00 73 1011.4
20260507075341 54 0 1.0 9.0 0.00 0.00 0.00 72 1011.3
20260507074838 54 303 3.0 9.0 0.00 0.00 0.00 73 1011.3
20260507074335 54 305 6.0 7.0 0.00 0.00 0.00 74 1011.5
20260507073832 54 328 4.0 6.0 0.00 0.00 0.00 74 1011.3
20260507073329 54 348 2.0 5.0 0.00 0.00 0.00 75 1011.7
20260507072826 54 98 0.0 3.0 0.00 0.00 0.00 75 1011.2
20260507072324 54 107 0.0 6.0 0.00 0.00 0.00 75 1011.2
20260507071821 54 127 1.0 5.0 0.00 0.00 0.00 75 1011.1
20260507071318 54 9 2.0 6.0 0.00 0.00 0.00 75 1011.2
20260507070814 54 247 1.0 5.0 0.00 0.00 0.00 75 1011.1
20260507070312 54 67 2.0 4.0 0.00 0.00 0.00 75 1011.3
20260507065808 54 303 5.0 7.0 0.00 0.00 0.00 74 1011.5
20260507065306 55 44 0.0 12.0 0.00 0.00 0.00 74 1011.7
20260507064802 55 108 0.0 4.0 0.00 0.00 0.00 75 1011.5
20260507064301 55 342 1.0 5.0 0.00 0.00 0.00 75 1011.5
20260507063758 55 296 2.0 5.0 0.00 0.00 0.00 75 1011.7
20260507063255 55 56 3.0 3.0 0.00 0.00 0.00 76 1011.9
20260507062752 55 24 1.0 4.0 0.00 0.00 0.00 76 1011.8
20260507062249 55 318 3.0 8.0 0.00 0.00 0.00 75 1011.9
20260507061747 55 315 3.0 6.0 0.00 0.00 0.00 76 1011.9
20260507061244 55 351 0.0 4.0 0.00 0.00 0.00 77 1011.9
20260507060743 55 299 4.0 5.0 0.00 0.00 0.00 76 1011.9
20260507060239 55 281 0.0 8.0 0.00 0.00 0.00 76 1011.9
20260507055735 55 326 2.0 3.0 0.00 0.00 0.00 77 1011.9
20260507055231 55 5 2.0 6.0 0.00 0.00 0.00 77 1012.2
20260507054727 55 320 1.0 5.0 0.00 0.00 0.00 77 1011.9
20260507054224 55 77 1.0 6.0 0.00 0.00 0.00 77 1011.7
20260507053721 55 24 0.0 5.0 0.00 0.00 0.00 77 1011.8
20260507053219 55 357 2.0 4.0 0.00 0.00 0.00 77 1011.4
20260507052718 55 50 1.0 4.0 0.00 0.00 0.00 77 1011.5
20260507052213 55 24 2.0 3.0 0.00 0.00 0.00 78 1011.5
20260507051712 55 260 1.0 3.0 0.00 0.00 0.00 79 1011.6
20260507051208 55 32 2.0 8.0 0.00 0.00 0.00 78 1011.5
20260507050705 55 280 2.0 5.0 0.00 0.00 0.00 78 1011.3
20260507050202 55 332 3.0 5.0 0.00 0.00 0.00 80 1011.4
20260507045659 55 325 3.0 5.0 0.00 0.00 0.00 80 1011.5
20260507045156 55 15 2.0 4.0 0.00 0.00 0.00 81 1011.2
20260507044652 55 73 3.0 5.0 0.00 0.00 0.00 81 1011.3
20260507044149 55 3 2.0 5.0 0.00 0.00 0.00 81 1011.2
20260507043645 56 12 2.0 7.0 0.00 0.00 0.00 81 1011.5
20260507043142 56 286 5.0 8.0 0.00 0.00 0.00 82 1011.5
20260507042638 56 51 5.0 5.0 0.00 0.00 0.00 82 1011.0
20260507042134 56 19 3.0 5.0 0.00 0.00 0.00 81 1011.2
20260507041631 56 298 4.0 5.0 0.00 0.00 0.00 82 1011.2
20260507041127 56 344 2.0 4.0 0.00 0.00 0.00 82 1011.5
20260507040625 56 321 3.0 9.0 0.00 0.00 0.00 81 1011.4
20260507040121 56 299 2.0 3.0 0.00 0.00 0.00 82 1011.8
20260507035616 56 319 3.0 5.0 0.00 0.16 0.16 81 1011.9
20260507035113 56 329 1.0 3.0 0.00 0.16 0.16 82 1011.6
20260507034610 56 329 1.0 4.0 0.00 0.16 0.16 81 1011.4
20260507034107 56 313 3.0 4.0 0.00 0.16 0.16 81 1011.3
20260507033606 56 303 3.0 5.0 0.00 0.16 0.16 81 1011.5
20260507033103 56 55 2.0 6.0 0.00 0.16 0.16 82 1011.5
20260507032600 56 49 1.0 7.0 0.00 0.16 0.16 83 1011.3
20260507032056 56 80 2.0 5.0 0.00 0.16 0.16 83 1011.5
20260507031552 56 298 4.0 6.0 0.00 0.16 0.16 84 1011.8
20260507031049 56 52 4.0 5.0 0.00 0.16 0.16 84 1011.7
20260507030546 56 247 1.0 6.0 0.00 0.16 0.16 85 1011.3
20260507030044 56 207 3.0 8.0 0.00 0.16 0.16 85 1011.5
20260507025541 56 40 5.0 10.0 0.00 0.16 0.16 85 1011.6
20260507025038 57 325 2.0 5.0 0.00 0.16 0.16 85 1011.3
20260507024536 57 337 1.0 6.0 0.00 0.16 0.16 84 1011.3
20260507024032 57 333 3.0 8.0 0.00 0.16 0.16 84 1011.1
20260507023528 57 329 4.0 7.0 0.00 0.16 0.16 84 1011.3
20260507023026 57 189 2.0 6.0 0.00 0.16 0.16 85 1011.0
20260507022522 58 258 0.0 3.0 0.00 0.16 0.16 84 1011.0
20260507022018 58 8 2.0 4.0 0.00 0.16 0.16 84 1011.2
20260507021514 58 30 0.0 7.0 0.00 0.16 0.16 83 1011.3
20260507021011 58 42 1.0 5.0 0.00 0.16 0.16 83 1010.8
20260507020508 58 22 0.0 4.0 0.00 0.16 0.16 82 1010.7
20260507020005 58 324 2.0 6.0 0.00 0.16 0.16 83 1010.8
20260507015503 59 351 4.0 13.0 0.00 0.16 0.16 83 1010.6
20260507015000 59 334 2.0 7.0 0.00 0.16 0.16 83 1010.7
20260507014457 59 218 1.0 3.0 0.00 0.16 0.16 82 1010.6
20260507013952 59 20 0.0 3.0 0.00 0.16 0.16 81 1010.8
20260507013449 60 283 2.0 9.0 0.00 0.16 0.16 81 1010.7
20260507012947 60 276 3.0 6.0 0.00 0.16 0.16 81 1010.6
20260507012443 60 328 2.0 5.0 0.00 0.16 0.16 82 1010.4
20260507011940 60 344 1.0 4.0 0.00 0.16 0.16 83 1010.5
20260507011437 60 12 2.0 4.0 0.00 0.16 0.16 83 1010.5
20260507010932 60 44 0.0 2.0 0.00 0.16 0.16 84 1010.4
20260507010427 60 309 2.0 2.0 0.00 0.16 0.16 82 1010.4
20260507005924 60 35 2.0 5.0 0.00 0.16 0.16 82 1010.2
20260507005421 61 1 2.0 5.0 0.00 0.16 0.16 82 1010.2
20260507004918 61 39 2.0 4.0 0.00 0.16 0.16 81 1010.4
20260507004414 61 259 2.0 5.0 0.00 0.16 0.16 80 1010.7
20260507003912 61 283 1.0 6.0 0.00 0.16 0.16 82 1010.7
20260507003407 61 308 1.0 4.0 0.00 0.16 0.16 83 1010.3
20260507002903 62 13 2.0 6.0 0.00 0.16 0.16 84 1010.0
20260507002359 62 17 0.0 5.0 0.00 0.16 0.16 84 1010.2
20260507001856 62 146 0.0 2.0 0.00 0.16 0.16 84 1010.3
20260507001353 62 304 0.0 4.0 0.00 0.16 0.16 82 1010.2
20260507000850 62 291 3.0 5.0 0.00 0.16 0.16 83 1010.0
20260507000345 62 31 3.0 5.0 0.00 0.16 0.16 85 1010.0
20260506235842 62 345 3.0 7.0 0.00 0.16 0.16 85 1009.9
20260506235339 62 285 2.0 4.0 0.00 0.16 0.16 88 1009.9
20260506234834 62 41 2.0 4.0 0.00 0.16 0.16 89 1009.7
20260506234332 63 79 2.0 3.0 0.00 0.16 0.16 88 1009.4
20260506233830 63 352 2.0 7.0 0.00 0.16 0.16 88 1009.6
20260506233325 63 338 2.0 3.0 0.00 0.16 0.16 89 1009.8
20260506232823 63 286 3.0 4.0 0.00 0.16 0.16 90 1009.0
20260506232318 63 229 0.0 8.0 0.02 0.16 0.16 90 1008.6
20260506231815 64 26 2.0 6.0 0.02 0.16 0.16 88 1008.7
20260506231313 64 339 1.0 3.0 0.00 0.15 0.15 89 1009.1
20260506230810 64 25 0.0 2.0 0.00 0.15 0.15 89 1008.6
20260506230307 65 229 0.0 3.0 0.00 0.15 0.15 89 1008.7
20260506225803 65 344 0.0 3.0 0.00 0.15 0.15 89 1008.8
20260506225300 65 268 2.0 3.0 0.00 0.15 0.15 88 1008.6
20260506224756 65 217 0.0 2.0 0.00 0.15 0.15 87 1008.8
20260506224254 65 74 2.0 4.0 0.00 0.15 0.15 87 1008.9
20260506223749 65 335 1.0 4.0 0.00 0.15 0.15 87 1008.9
20260506223240 65 342 3.0 5.0 0.00 0.15 0.15 85 1009.1
20260506222737 66 134 0.0 4.0 0.00 0.15 0.15 85 1008.8
20260506222232 66 0 0.0 4.0 0.00 0.15 0.15 86 1008.7
20260506221731 66 279 1.0 3.0 0.00 0.15 0.15 88 1008.7
20260506221228 67 248 2.0 5.0 0.00 0.15 0.15 89 1008.6
20260506220725 67 298 2.0 4.0 0.00 0.15 0.15 90 1008.4
20260506220220 67 269 0.0 2.0 0.00 0.15 0.15 91 1008.5
20260506215717 67 279 0.0 3.0 0.00 0.15 0.15 91 1008.5
20260506215213 67 316 2.0 4.0 0.00 0.15 0.15 90 1008.3
20260506214709 66 332 1.0 4.0 0.00 0.15 0.15 93 1008.1
20260506214206 67 272 1.0 3.0 0.00 0.15 0.15 94 1008.1
20260506213705 67 122 0.0 2.0 0.00 0.15 0.15 95 1008.2
20260506213202 66 3 1.0 5.0 0.00 0.15 0.15 95 1008.2
20260506212659 67 322 2.0 8.0 0.00 0.15 0.15 95 1008.1
20260506212154 68 327 2.0 5.0 0.00 0.15 0.15 94 1008.0
20260506211650 68 54 0.0 1.0 0.00 0.15 0.15 90 1007.8
20260506211147 67 271 1.0 3.0 0.00 0.15 0.15 89 1008.2
20260506210644 68 89 0.0 1.0 0.00 0.15 0.15 91 1007.7
20260506210140 67 44 0.0 2.0 0.00 0.15 0.15 92 1007.6
20260506205638 67 347 0.0 1.0 0.00 0.15 0.15 92 1007.5
20260506205137 67 202 0.0 3.0 0.00 0.15 0.15 93 1007.3
20260506204636 67 135 0.0 2.0 0.00 0.15 0.15 93 1007.1
20260506204132 67 99 0.0 3.0 0.00 0.15 0.15 94 1007.3
20260506203631 67 124 0.0 3.0 0.00 0.15 0.15 94 1007.4
20260506203127 67 110 0.0 1.0 0.00 0.15 0.15 96 1007.3
20260506202625 66 96 0.0 2.0 0.00 0.15 0.15 96 1007.3
20260506202121 66 95 0.0 3.0 0.00 0.15 0.15 96 1007.4
20260506201618 66 116 0.0 2.0 0.00 0.15 0.15 96 1007.3
20260506201115 66 168 0.0 2.0 0.00 0.15 0.15 96 1007.1
20260506200611 66 49 1.0 3.0 0.00 0.15 0.15 96 1007.4
20260506200108 66 94 2.0 2.0 0.00 0.15 0.15 96 1007.3
20260506195604 65 101 0.0 2.0 0.00 0.15 0.15 97 1007.4
20260506195101 65 89 0.0 2.0 0.00 0.15 0.15 97 1007.0
20260506194559 65 116 0.0 3.0 0.00 0.15 0.15 97 1007.4
20260506194055 65 180 0.0 1.0 0.00 0.15 0.15 97 1007.6
20260506193553 65 38 0.0 1.0 0.00 0.15 0.15 97 1007.3
20260506193050 65 39 1.0 2.0 0.00 0.15 0.15 96 1007.3
20260506192547 65 328 0.0 1.0 0.00 0.15 0.15 96 1007.2
20260506192042 65 135 0.0 2.0 0.00 0.15 0.15 96 1007.5
20260506191539 65 89 0.0 3.0 0.00 0.15 0.15 96 1007.3
20260506191035 65 60 0.0 3.0 0.00 0.15 0.15 95 1007.7
20260506190532 65 150 0.0 2.0 0.00 0.15 0.15 95 1007.7
20260506190030 65 69 1.0 2.0 0.00 0.15 0.15 95 1007.3
20260506185527 65 106 1.0 2.0 0.02 0.15 0.15 95 1007.5
20260506185023 65 123 2.0 2.0 0.05 0.15 0.15 96 1007.7
20260506184521 65 22 0.0 1.0 0.07 0.15 0.15 96 1007.6
20260506184018 65 34 0.0 3.0 0.05 0.15 0.15 95 1007.5
20260506183513 65 6 0.0 2.0 0.02 0.14 0.14 95 1007.7
20260506183010 65 202 0.0 2.0 0.02 0.14 0.14 95 1007.9
20260506182508 65 106 0.0 2.0 0.02 0.13 0.13 95 1008.1
20260506182004 65 50 1.0 1.0 0.02 0.13 0.13 95 1007.6
20260506181502 65 16 1.0 3.0 0.05 0.13 0.13 93 1007.9
20260506180959 65 326 0.0 3.0 0.05 0.13 0.13 93 1008.0
20260506180456 66 330 1.0 2.0 0.05 0.12 0.12 92 1007.7
20260506175952 66 315 0.0 3.0 0.05 0.12 0.12 91 1008.0
20260506175449 66 262 2.0 4.0 0.02 0.11 0.11 88 1008.0
20260506174945 67 258 2.0 3.0 0.00 0.11 0.11 87 1008.1
20260506174444 67 305 1.0 2.0 0.00 0.11 0.11 86 1007.9
20260506173940 67 272 0.0 4.0 0.00 0.11 0.11 85 1007.9
20260506173438 67 107 2.0 4.0 0.00 0.11 0.11 85 1007.9
20260506172934 67 272 0.0 3.0 0.00 0.11 0.11 88 1008.1
20260506172431 67 290 3.0 8.0 0.00 0.11 0.11 85 1007.9